Volver al catálogo

SL-12 R/B(2)

ActivoHEO
NORAD 26090·ROCKET BODY·🇷🇺 Russia

Lanzado Feb 12, 2000 desde Baikonur Cosmodrome

Loading…

Próximos Pases (próximas 24 horas)

TLE

ActualizadoSource: Space-Track

Época: Sep 14, 2026, 13:19 UTC

1 26090U 00011B   26257.55508072 -.00000127  00000-0  00000+0 0  9993
2 26090  16.0202 219.7517 5328865 337.8771 249.3355  1.90707368185203

Sigue SL-12 R/B(2) en tiempo real con AllMySat

Download on the App Store